sat.trackr.live / text

‹ back to catalog

STARLINK-36706

NORAD 67657 · 2026-022K

PAYLOAD ACTIVE UNKNOWN

§ Identity

Operator
Country
US
Launch date
2026-02-02
Launch site
AFWTR
Launch vehicle
Mass (kg)
RCS (m²)

Purposes: comms

External: N2YO · Heavens-Above · Gunter

§ Orbital elements

Epoch: 2026-09-18T01:57:11.695968Z

Period
93.91 min
Inclination
97.2841°
Eccentricity
0.0001310
Mean motion
15.33433234 rev/d
Perigee alt
464.7 km
Apogee alt
466.5 km
Semi-major
6,843.7 km
B*
5.1868e-4
RAAN
292.6358°
Arg perigee
108.0684°
Mean anomaly
252.0701°
Rev number
3,505

§ Raw data

STARLINK-367061 67657U 26022K   26261.08138537  .00016701  00000+0  51868-3 0  99902 67657  97.2841 292.6358 0001310 108.0684 252.0701 15.33433234 35052

JSON: /api/v1/satellites/67657 · /tle

For live sub-satellite position, see the globe view (requires WebGL).

§ Visibility from observer

Set your observer location to see the next 7 days of passes ≥ 10°. The values pass through the URL so the page stays shareable.

No JS? Fill the form by hand. The geolocation button needs JavaScript.